Location: Newark
(25.6108°S, 54.5803°W)
Time: 21:05:44
(UTC+00:00)

Courier 1B - Pass Details

Date: 30 October 2020
Orbit: 962 x 1209 km, 28.3° (Epoch: 24 November)

Event Time Altitude Azimuth Distance (km) Brightness Sun altitude
Rises 03:04:03 0° 271° (W) 4,011 - -50.2°
Reaches altitude 10° 03:06:50 10° 269° (W) 3,079 - -50.3°
Maximum altitude 03:14:33 74° 184° (S) 1,245 - -50.4°
Drops below altitude 10° 03:22:29 10° 99° (E) 3,154 - -50.5°
Sets 03:25:21 0° 97° (E) 4,113 - -50.5°
